Skip Page Navigation
NASA JPL Caltech
NASA Logo - Jet Propulsion Laboratory + View the NASA Portal
+ Center for Near-Earth Object Studies
JPL Home Earth Solar System Stars & Galaxies Technology
JPL Solar System Dynamics
BODIES ORBITS EPHEMERIDES TOOLS PHYSICAL DATA DISCOVERY FAQ SITE MAP
JPL Small-Body Database Browser
Search: [ help ]  
192802 (1999 VO16)
Classification: Main-belt Asteroid          SPK-ID: 2192802
Ephemeris | Orbit Diagram | Orbital Elements | Mission Design | Physical Parameters | Discovery Circumstances ]

[ show orbit diagram ]
Orbital Elements at Epoch 2459200.5 (2020-Dec-17.0) TDB
Reference: JPL 20 (heliocentric ecliptic J2000)
 Element Value Uncertainty (1-sigma)   Units 
e .2148913833221991 5.6896e-08  
a 2.781320564252136 1.91e-08 au
q 2.183638740737515 1.6301e-07 au
i 4.332437784374967 6.5999e-06 deg
node 7.37931294051557 6.6091e-05 deg
peri 344.6225873360909 6.7348e-05 deg
M 223.9089251309171 1.687e-05 deg
tp 2459840.974938402768
(2022-Sep-18.47493840)
8.3776e-05 TDB
period 1694.240258200631
4.64
1.7452e-05
4.778e-08
d
yr
n .2124846215036457 2.1887e-09 deg/d
Q 3.379002387766756 2.3204e-08 au
  Orbit Determination Parameters
   # obs. used (total)      333  
   data-arc span      7855 days (21.51 yr)  
   first obs. used      1999-10-07  
   last obs. used      2021-04-09  
   planetary ephem.      DE441  
   SB-pert. ephem.      SB441-N16  
   condition code      0  
   norm. resid. RMS      .52668  
   source      ORB  
   producer      Otto Matic  
   solution date      2021-May-04 10:20:05  

Additional Information
 Earth MOID = 1.17692 au 
 Jupiter MOID = 2.05887 au 
 T_jup = 3.295 
[ show covariance matrix ]

Ephemeris | Orbit Diagram | Orbital Elements | Mission Design | Physical Parameters | Discovery Circumstances ]

Physical Parameter Table
Parameter Symbol Value Units Sigma Reference Notes
absolute magnitude H 16.16   n/a E2021B55  
diameter diameter 3.961 km 1.115 urn:nasa:pds:neowise_diameters_albedos::2.0[mainbelt] (http://adsabs.harvard.edu/abs/2011ApJ...741...68M)  
rotation period rot_per 6.193 h n/a LCDB (Rev. 2020-October); Warner et al., 2009 Result based on less than full coverage, so that the period may be wrong by 30 percent or so.
Published Reference List:
[Waszczak, A.; Chang, C.-K.; Ofeck, E.O.; Laher, F.; et al. (2015) Astron. J. 150, A75.]
geometric albedo albedo 0.041   0.033 urn:nasa:pds:neowise_diameters_albedos::2.0[mainbelt] (http://adsabs.harvard.edu/abs/2011ApJ...741...68M)  

192802 (1999 VO16)          Discovered 1999-Nov-02 by Spacewatch at Kitt Peak
Reference: 20081113/Numbers.arcLast Updated: 2008-11-17
Ephemeris | Orbit Diagram | Orbital Elements | Mission Design | Physical Parameters | Discovery Circumstances ]
ABOUT SSD CREDITS/AWARDS PRIVACY/COPYRIGHT GLOSSARY LINKS
FirstGov 2021-May-17 17:43 UT
(server date/time)  
NASA Home Page
Site Manager:   Ryan S. Park
Webmaster  Alan B. Chamberlin